^^
Your Local Weather - Clay, NY Station Historical Data
Daily Summary for April 26, 2017 Units:  Metric    English   Both
« Previous Day
Next Day »
Daily Weekly Monthly Yearly Custom
  High: Low: Average:
Temperature: 22.4 °C 10.3 °C 15.7 °C
Dew Point: 14.2 °C 8.1 °C 10.9 °C
Humidity: 89% 55% 74%
Wind Speed: 8km/h 1.6km/h 4.3km/h
Wind Gust: 20.9km/h - -
Wind- - East
Pressure: 1010.7 hPa 1004.3 hPa -
Precipitation: 0 mm    
Historical Graphs
 
 
Tabular Data for April 26, 2017
Time Temperature Dew Point Pressure Wind Wind Speed Wind Gust Humidity Rainfall Rate (Hourly) solar
00:04 10.4 °C 8.4 °C 1010.7 hPa East 4.8 km/h 6.4 km/h 87% 0 mm 0 W/m2
00:10 10.4 °C 8.5 °C 1010.7 hPa ESE 4.8 km/h 4.8 km/h 88% 0 mm 0 W/m2
00:16 10.3 °C 8.4 °C 1010.7 hPa East 4.8 km/h 9.7 km/h 88% 0 mm 0 W/m2
00:22 10.3 °C 8.6 °C 1010.7 hPa East 6.4 km/h 6.4 km/h 89% 0 mm 0 W/m2
00:28 10.3 °C 8.6 °C 1010.4 hPa East 6.4 km/h 20.9 km/h 89% 0 mm 0 W/m2
00:34 10.3 °C 8.6 °C 1010.4 hPa SE 6.4 km/h 8 km/h 89% 0 mm 0 W/m2
00:40 10.4 °C 8.7 °C 1010.4 hPa East 6.4 km/h 9.7 km/h 89% 0 mm 0 W/m2
00:46 10.4 °C 8.7 °C 1010.4 hPa ESE 6.4 km/h 9.7 km/h 89% 0 mm 0 W/m2
00:52 10.4 °C 8.7 °C 1010.4 hPa SE 6.4 km/h 6.4 km/h 89% 0 mm 0 W/m2
00:58 10.4 °C 8.6 °C 1010.4 hPa ENE 4.8 km/h 8 km/h 88% 0 mm 0 W/m2
01:04 10.4 °C 8.6 °C 1010.4 hPa East 4.8 km/h 9.7 km/h 88% 0 mm 0 W/m2
01:10 10.4 °C 8.6 °C 1010.4 hPa ENE 4.8 km/h 4.8 km/h 88% 0 mm 0 W/m2
01:16 10.4 °C 8.5 °C 1010 hPa NE 4.8 km/h 4.8 km/h 88% 0 mm 0 W/m2
01:22 10.4 °C 8.5 °C 1010 hPa East 4.8 km/h 9.7 km/h 88% 0 mm 0 W/m2
01:28 10.3 °C 8.3 °C 1010 hPa East 4.8 km/h 9.7 km/h 87% 0 mm 0 W/m2
01:34 10.4 °C 8.3 °C 1010 hPa ENE 4.8 km/h 6.4 km/h 87% 0 mm 0 W/m2
01:40 10.4 °C 8.3 °C 1010 hPa ESE 4.8 km/h 11.3 km/h 87% 0 mm 0 W/m2
01:46 10.4 °C 8.4 °C 1010 hPa East 4.8 km/h 11.3 km/h 87% 0 mm 0 W/m2
01:52 10.4 °C 8.4 °C 1010 hPa East 3.2 km/h 4.8 km/h 87% 0 mm 0 W/m2
01:58 10.4 °C 8.2 °C 1010 hPa ENE 4.8 km/h 8 km/h 86% 0 mm 0 W/m2
02:04 10.5 °C 8.3 °C 1010 hPa ESE 4.8 km/h 16.1 km/h 86% 0 mm 0 W/m2
02:10 10.6 °C 8.3 °C 1009.7 hPa East 6.4 km/h 8 km/h 86% 0 mm 0 W/m2
02:16 10.6 °C 8.3 °C 1009.7 hPa ENE 4.8 km/h 8 km/h 86% 0 mm 0 W/m2
02:22 10.5 °C 8.3 °C 1009.7 hPa SE 4.8 km/h 4.8 km/h 86% 0 mm 0 W/m2
02:28 10.5 °C 8.3 °C 1009.7 hPa East 4.8 km/h 4.8 km/h 86% 0 mm 0 W/m2
02:34 10.6 °C 8.3 °C 1009.7 hPa ENE 4.8 km/h 4.8 km/h 86% 0 mm 0 W/m2
02:40 10.6 °C 8.3 °C 1009.7 hPa East 3.2 km/h 4.8 km/h 86% 0 mm 0 W/m2
02:46 10.6 °C 8.3 °C 1009.7 hPa East 3.2 km/h 4.8 km/h 86% 0 mm 0 W/m2
02:52 10.5 °C 8.3 °C 1009.7 hPa East 1.6 km/h 1.6 km/h 86% 0 mm 0 W/m2
02:58 10.5 °C 8.3 °C 1009.7 hPa NE 3.2 km/h 4.8 km/h 86% 0 mm 0 W/m2
03:04 10.6 °C 8.3 °C 1009.7 hPa ENE 4.8 km/h 4.8 km/h 86% 0 mm 0 W/m2
03:10 10.6 °C 8.3 °C 1009.7 hPa East 3.2 km/h 3.2 km/h 86% 0 mm 0 W/m2
03:16 10.5 °C 8.3 °C 1009.7 hPa East 3.2 km/h 8 km/h 86% 0 mm 0 W/m2
03:22 10.6 °C 8.3 °C 1009.7 hPa NE 4.8 km/h 4.8 km/h 86% 0 mm 0 W/m2
03:28 10.6 °C 8.3 °C 1009.7 hPa East 4.8 km/h 9.7 km/h 86% 0 mm 0 W/m2
03:34 10.6 °C 8.3 °C 1009.7 hPa NE 4.8 km/h 6.4 km/h 86% 0 mm 0 W/m2
03:40 10.6 °C 8.3 °C 1009.7 hPa East 3.2 km/h 3.2 km/h 86% 0 mm 0 W/m2
03:46 10.6 °C 8.3 °C 1009.7 hPa East 3.2 km/h 4.8 km/h 86% 0 mm 0 W/m2
03:52 10.6 °C 8.3 °C 1009.7 hPa ESE 4.8 km/h 4.8 km/h 86% 0 mm 0 W/m2
03:58 10.6 °C 8.3 °C 1009.4 hPa NE 4.8 km/h 9.7 km/h 86% 0 mm 0 W/m2
04:04 10.6 °C 8.3 °C 1009.7 hPa ENE 4.8 km/h 8 km/h 86% 0 mm 0 W/m2
04:10 10.6 °C 8.4 °C 1009.4 hPa East 4.8 km/h 4.8 km/h 86% 0 mm 0 W/m2
04:16 10.6 °C 8.4 °C 1009.4 hPa ENE 4.8 km/h 4.8 km/h 86% 0 mm 0 W/m2
04:22 10.6 °C 8.2 °C 1009.4 hPa ENE 4.8 km/h 4.8 km/h 85% 0 mm 0 W/m2
04:28 10.6 °C 8.2 °C 1009.4 hPa East 4.8 km/h 4.8 km/h 85% 0 mm 0 W/m2
04:34 10.6 °C 8.2 °C 1009.4 hPa ENE 4.8 km/h 11.3 km/h 85% 0 mm 0 W/m2
04:40 10.6 °C 8.2 °C 1009.4 hPa East 4.8 km/h 4.8 km/h 85% 0 mm 0 W/m2
04:46 10.6 °C 8.2 °C 1009 hPa SE 3.2 km/h 4.8 km/h 85% 0 mm 0 W/m2
04:52 10.6 °C 8.2 °C 1009 hPa East 3.2 km/h 4.8 km/h 85% 0 mm 0 W/m2
04:58 10.6 °C 8.2 °C 1009 hPa ENE 4.8 km/h 11.3 km/h 85% 0 mm 0 W/m2
05:04 10.6 °C 8.2 °C 1009 hPa ENE 4.8 km/h 4.8 km/h 85% 0 mm 0 W/m2
05:10 10.6 °C 8.2 °C 1009 hPa East 4.8 km/h 4.8 km/h 85% 0 mm 0 W/m2
05:16 10.7 °C 8.2 °C 1009.4 hPa ENE 6.4 km/h 6.4 km/h 85% 0 mm 0 W/m2
05:22 10.6 °C 8.2 °C 1009.4 hPa ENE 3.2 km/h 4.8 km/h 85% 0 mm 0 W/m2
05:28 10.6 °C 8.2 °C 1009.4 hPa ENE 3.2 km/h 4.8 km/h 85% 0 mm 0 W/m2
05:34 10.6 °C 8.2 °C 1009.4 hPa ENE 3.2 km/h 8 km/h 85% 0 mm 0 W/m2
05:40 10.6 °C 8.2 °C 1009.4 hPa ENE 3.2 km/h 4.8 km/h 85% 0 mm 0 W/m2
05:46 10.6 °C 8.2 °C 1009 hPa East 3.2 km/h 6.4 km/h 85% 0 mm 0 W/m2
05:52 10.6 °C 8.2 °C 1009 hPa East 3.2 km/h 9.7 km/h 85% 0 mm 0 W/m2
05:58 10.6 °C 8.1 °C 1009 hPa ENE 3.2 km/h 9.7 km/h 85% 0 mm 0 W/m2
06:04 10.6 °C 8.1 °C 1009 hPa ENE 4.8 km/h 4.8 km/h 85% 0 mm 0 W/m2
06:10 10.6 °C 8.2 °C 1009 hPa East 4.8 km/h 8 km/h 85% 0 mm 0 W/m2
06:16 10.6 °C 8.2 °C 1009 hPa ENE 4.8 km/h 11.3 km/h 85% 0 mm 5 W/m2
06:22 10.6 °C 8.2 °C 1009 hPa ENE 4.8 km/h 4.8 km/h 85% 0 mm 9 W/m2
06:28 10.6 °C 8.3 °C 1009 hPa East 3.2 km/h 4.8 km/h 86% 0 mm 14 W/m2
06:34 10.6 °C 8.1 °C 1009 hPa ENE 4.8 km/h 8 km/h 85% 0 mm 21 W/m2
06:40 10.6 °C 8.1 °C 1009 hPa East 4.8 km/h 4.8 km/h 85% 0 mm 26 W/m2
06:46 10.6 °C 8.3 °C 1009 hPa East 3.2 km/h 4.8 km/h 86% 0 mm 33 W/m2
06:52 10.6 °C 8.3 °C 1009 hPa East 3.2 km/h 4.8 km/h 86% 0 mm 40 W/m2
06:58 10.6 °C 8.3 °C 1009 hPa East 3.2 km/h 4.8 km/h 86% 0 mm 49 W/m2
07:04 10.6 °C 8.4 °C 1009 hPa NE 3.2 km/h 4.8 km/h 86% 0 mm 58 W/m2
07:10 10.7 °C 8.4 °C 1009 hPa ENE 3.2 km/h 3.2 km/h 86% 0 mm 67 W/m2
07:16 10.8 °C 8.6 °C 1008.7 hPa East 3.2 km/h 6.4 km/h 86% 0 mm 77 W/m2
07:22 10.9 °C 8.6 °C 1008.7 hPa East 3.2 km/h 3.2 km/h 86% 0 mm 88 W/m2
07:28 10.9 °C 8.5 °C 1009 hPa East 3.2 km/h 4.8 km/h 85% 0 mm 97 W/m2
07:34 11.1 °C 8.7 °C 1009 hPa NE 3.2 km/h 4.8 km/h 85% 0 mm 90 W/m2
07:40 11.3 °C 8.8 °C 1009 hPa SE 3.2 km/h 4.8 km/h 85% 0 mm 102 W/m2
07:46 11.3 °C 8.7 °C 1009 hPa ESE 4.8 km/h 4.8 km/h 84% 0 mm 125 W/m2
07:52 11.4 °C 8.8 °C 1009 hPa ENE 4.8 km/h 6.4 km/h 84% 0 mm 132 W/m2
07:58 11.6 °C 9 °C 1008.7 hPa East 3.2 km/h 6.4 km/h 84% 0 mm 142 W/m2
08:06 11.8 °C 9 °C 1009 hPa ESE 3.2 km/h 4.8 km/h 83% 0 mm 149 W/m2
08:12 11.9 °C 9.2 °C 1008.7 hPa East 4.8 km/h 4.8 km/h 83% 0 mm 250 W/m2
08:18 12.1 °C 9.1 °C 1009 hPa ENE 6.4 km/h 12.9 km/h 82% 0 mm 176 W/m2
08:24 12.1 °C 9.1 °C 1009 hPa ENE 8 km/h 8 km/h 82% 0 mm 200 W/m2
08:30 12.1 °C 8.9 °C 1009 hPa SE 8 km/h 8 km/h 81% 0 mm 225 W/m2
08:36 12.3 °C 9.2 °C 1009 hPa SE 6.4 km/h 8 km/h 81% 0 mm 237 W/m2
08:42 12.6 °C 9.4 °C 1009 hPa NE 4.8 km/h 6.4 km/h 81% 0 mm 264 W/m2
08:48 12.8 °C 9.4 °C 1008.7 hPa SE 4.8 km/h 6.4 km/h 80% 0 mm 279 W/m2
08:54 12.9 °C 9.4 °C 1008.7 hPa ENE 3.2 km/h 6.4 km/h 79% 0 mm 338 W/m2
09:00 13.3 °C 9.7 °C 1008.7 hPa ENE 4.8 km/h 4.8 km/h 79% 0 mm 278 W/m2
09:06 13.3 °C 9.5 °C 1008.7 hPa East 4.8 km/h 8 km/h 78% 0 mm 246 W/m2
09:12 13.2 °C 9.4 °C 1008.7 hPa East 4.8 km/h 6.4 km/h 78% 0 mm 255 W/m2
09:18 13.3 °C 9.5 °C 1008.7 hPa ESE 3.2 km/h 6.4 km/h 78% 0 mm 294 W/m2
09:24 13.4 °C 9.8 °C 1008.7 hPa ENE 4.8 km/h 6.4 km/h 79% 0 mm 320 W/m2
09:30 13.5 °C 9.6 °C 1008.7 hPa East 4.8 km/h 11.3 km/h 77% 0 mm 283 W/m2
09:36 13.6 °C 9.8 °C 1008.4 hPa East 4.8 km/h 11.3 km/h 78% 0 mm 318 W/m2
09:42 13.8 °C 9.9 °C 1008.4 hPa East 4.8 km/h 11.3 km/h 77% 0 mm 480 W/m2
09:48 13.8 °C 9.7 °C 1008.4 hPa East 6.4 km/h 14.5 km/h 76% 0 mm 519 W/m2
09:54 14.2 °C 10.1 °C 1008.4 hPa NE 6.4 km/h 8 km/h 76% 0 mm 520 W/m2
10:00 14.6 °C 10.4 °C 1008.4 hPa East 4.8 km/h 4.8 km/h 76% 0 mm 592 W/m2
10:06 14.5 °C 10.1 °C 1008 hPa ENE 6.4 km/h 8 km/h 75% 0 mm 424 W/m2
10:12 14.3 °C 9.9 °C 1008.4 hPa ENE 6.4 km/h 6.4 km/h 75% 0 mm 410 W/m2
10:18 14.4 °C 10 °C 1008.4 hPa East 6.4 km/h 9.7 km/h 75% 0 mm 408 W/m2
10:24 14.6 °C 10.2 °C 1008.7 hPa NNE 6.4 km/h 11.3 km/h 75% 0 mm 401 W/m2
10:30 14.7 °C 10.1 °C 1008.7 hPa SE 4.8 km/h 4.8 km/h 74% 0 mm 397 W/m2
10:36 14.9 °C 10.3 °C 1008.7 hPa NE 4.8 km/h 4.8 km/h 74% 0 mm 341 W/m2
10:42 14.9 °C 10.1 °C 1008.7 hPa ENE 6.4 km/h 6.4 km/h 73% 0 mm 396 W/m2
10:48 15.3 °C 10.4 °C 1008.7 hPa NE 4.8 km/h 6.4 km/h 73% 0 mm 387 W/m2
10:54 15.1 °C 10.7 °C 1008.7 hPa ENE 3.2 km/h 9.7 km/h 75% 0 mm 287 W/m2
10:56 15.1 °C 10.5 °C 1008.7 hPa ENE 3.2 km/h 9.7 km/h 74% 0 mm 271 W/m2
11:02 14.8 °C 10.4 °C 1008.7 hPa NNE 3.2 km/h 8 km/h 75% 0 mm 253 W/m2
11:08 14.7 °C 10.3 °C 1008.7 hPa NE 4.8 km/h 8 km/h 75% 0 mm 339 W/m2
11:14 14.9 °C 10.6 °C 1008.7 hPa NNW 6.4 km/h 8 km/h 75% 0 mm 640 W/m2
11:20 15.7 °C 11.4 °C 1008.7 hPa NE 4.8 km/h 8 km/h 76% 0 mm 729 W/m2
11:26 15.9 °C 11.3 °C 1008.7 hPa NNE 4.8 km/h 8 km/h 74% 0 mm 856 W/m2
11:32 15.9 °C 10.8 °C 1008.7 hPa NE 6.4 km/h 9.7 km/h 72% 0 mm 846 W/m2
11:38 16.2 °C 10.7 °C 1008.4 hPa North 8 km/h 9.7 km/h 70% 0 mm 902 W/m2
11:44 16.5 °C 11 °C 1008.4 hPa North 8 km/h 12.9 km/h 70% 0 mm 868 W/m2
11:50 16.6 °C 10.8 °C 1008.4 hPa ENE 6.4 km/h 8 km/h 69% 0 mm 784 W/m2
11:56 16.2 °C 10.7 °C 1008.4 hPa ENE 4.8 km/h 11.3 km/h 70% 0 mm 1056 W/m2
12:02 16.6 °C 11.7 °C 1008.4 hPa North 4.8 km/h 6.4 km/h 73% 0 mm 928 W/m2
12:08 17.1 °C 11.3 °C 1008 hPa NNE 4.8 km/h 8 km/h 69% 0 mm 904 W/m2
12:14 16.8 °C 10.8 °C 1008 hPa East 4.8 km/h 14.5 km/h 68% 0 mm 902 W/m2
12:19 16.7 °C 11.7 °C 1008 hPa East 4.8 km/h 11.3 km/h 72% 0 mm 904 W/m2
12:26 17.1 °C 11.8 °C 1008 hPa ESE 4.8 km/h 11.3 km/h 71% 0 mm 905 W/m2
12:32 16.9 °C 11.7 °C 1008 hPa ENE 6.4 km/h 11.3 km/h 71% 0 mm 902 W/m2
12:38 17.4 °C 11.8 °C 1008 hPa NNW 8 km/h 11.3 km/h 70% 0 mm 909 W/m2
12:44 17.7 °C 11.4 °C 1007.7 hPa NNE 8 km/h 11.3 km/h 67% 0 mm 902 W/m2
12:50 17.9 °C 11.9 °C 1007.7 hPa ESE 4.8 km/h 4.8 km/h 68% 0 mm 907 W/m2
12:56 17.9 °C 11.7 °C 1007.7 hPa NE 4.8 km/h 8 km/h 67% 0 mm 904 W/m2
13:02 18.5 °C 12.7 °C 1007.3 hPa East 4.8 km/h 8 km/h 69% 0 mm 905 W/m2
13:08 18.8 °C 11.9 °C 1007.3 hPa North 4.8 km/h 8 km/h 64% 0 mm 905 W/m2
13:14 18.8 °C 12.1 °C 1007.3 hPa NNE 4.8 km/h 6.4 km/h 65% 0 mm 902 W/m2
13:20 18.6 °C 12.1 °C 1007.3 hPa ESE 4.8 km/h 4.8 km/h 66% 0 mm 896 W/m2
13:26 18.7 °C 12.7 °C 1007 hPa ENE 6.4 km/h 6.4 km/h 68% 0 mm 893 W/m2
13:32 19.1 °C 13 °C 1007 hPa NNE 4.8 km/h 4.8 km/h 68% 0 mm 889 W/m2
13:38 19.1 °C 13.1 °C 1007 hPa NE 3.2 km/h 4.8 km/h 68% 0 mm 886 W/m2
13:44 19.3 °C 12.6 °C 1007 hPa North 4.8 km/h 6.4 km/h 65% 0 mm 881 W/m2
13:50 19.6 °C 12.8 °C 1007 hPa NE 3.2 km/h 3.2 km/h 65% 0 mm 879 W/m2
13:56 19.7 °C 12.4 °C 1007 hPa NE 4.8 km/h 6.4 km/h 63% 0 mm 874 W/m2
14:02 19.8 °C 13 °C 1006.7 hPa ESE 4.8 km/h 6.4 km/h 65% 0 mm 868 W/m2
14:08 19.8 °C 13 °C 1006.7 hPa South 4.8 km/h 8 km/h 65% 0 mm 861 W/m2
14:14 20.2 °C 12.7 °C 1006.7 hPa ENE 4.8 km/h 4.8 km/h 62% 0 mm 856 W/m2
14:20 20.4 °C 13.4 °C 1006.7 hPa ENE 3.2 km/h 4.8 km/h 64% 0 mm 849 W/m2
14:26 20.2 °C 12.9 °C 1006.3 hPa SE 3.2 km/h 4.8 km/h 63% 0 mm 842 W/m2
14:32 20.6 °C 12.8 °C 1006.3 hPa NNE 4.8 km/h 4.8 km/h 61% 0 mm 833 W/m2
14:38 20.7 °C 12.6 °C 1006.3 hPa NNE 3.2 km/h 6.4 km/h 60% 0 mm 824 W/m2
14:44 20.7 °C 12.6 °C 1006.3 hPa North 4.8 km/h 11.3 km/h 60% 0 mm 816 W/m2
14:50 20.9 °C 13.1 °C 1006.3 hPa East 4.8 km/h 4.8 km/h 61% 0 mm 807 W/m2
14:56 21.2 °C 13.7 °C 1006 hPa NNW 3.2 km/h 6.4 km/h 62% 0 mm 798 W/m2
15:02 21.3 °C 12.7 °C 1006 hPa North 3.2 km/h 3.2 km/h 58% 0 mm 788 W/m2
15:08 21.6 °C 14 °C 1006 hPa ENE 3.2 km/h 3.2 km/h 62% 0 mm 775 W/m2
15:14 21.3 °C 12.9 °C 1005.6 hPa NNW 3.2 km/h 4.8 km/h 59% 0 mm 765 W/m2
15:20 21.7 °C 12.8 °C 1005.6 hPa North 4.8 km/h 4.8 km/h 57% 0 mm 752 W/m2
15:26 21.7 °C 13.6 °C 1005.6 hPa NNE 4.8 km/h 8 km/h 60% 0 mm 740 W/m2
15:32 21.9 °C 13.6 °C 1005.6 hPa NNW 4.8 km/h 4.8 km/h 59% 0 mm 729 W/m2
15:38 21.9 °C 13.5 °C 1005.6 hPa North 4.8 km/h 6.4 km/h 59% 0 mm 715 W/m2
15:44 21.8 °C 13.4 °C 1005.3 hPa SE 4.8 km/h 6.4 km/h 59% 0 mm 703 W/m2
15:50 22.2 °C 13.2 °C 1005.3 hPa NNE 4.8 km/h 6.4 km/h 57% 0 mm 691 W/m2
15:56 21.9 °C 13.6 °C 1005.3 hPa SE 4.8 km/h 6.4 km/h 59% 0 mm 675 W/m2
16:02 21.8 °C 13.2 °C 1005.3 hPa NE 4.8 km/h 8 km/h 58% 0 mm 661 W/m2
16:08 22 °C 13.1 °C 1005.3 hPa NNE 6.4 km/h 8 km/h 57% 0 mm 647 W/m2
16:14 22.4 °C 13.2 °C 1005.3 hPa NE 4.8 km/h 6.4 km/h 56% 0 mm 633 W/m2
16:20 22.2 °C 13.8 °C 1005 hPa East 4.8 km/h 4.8 km/h 59% 0 mm 619 W/m2
16:26 22.1 °C 14.2 °C 1005 hPa ENE 4.8 km/h 6.4 km/h 61% 0 mm 603 W/m2
16:32 22.4 °C 13.4 °C 1005 hPa North 4.8 km/h 6.4 km/h 57% 0 mm 584 W/m2
16:38 22.4 °C 13.7 °C 1005 hPa East 3.2 km/h 8 km/h 58% 0 mm 570 W/m2
16:44 22.3 °C 12.8 °C 1005 hPa ENE 3.2 km/h 4.8 km/h 55% 0 mm 555 W/m2
16:50 22.2 °C 13.8 °C 1005 hPa ENE 4.8 km/h 4.8 km/h 59% 0 mm 536 W/m2
16:56 22.3 °C 13.1 °C 1005 hPa ENE 4.8 km/h 8 km/h 56% 0 mm 520 W/m2
17:02 22.2 °C 13.5 °C 1005 hPa NNE 4.8 km/h 4.8 km/h 58% 0 mm 501 W/m2
17:08 22.2 °C 12.9 °C 1004.6 hPa North 6.4 km/h 9.7 km/h 56% 0 mm 483 W/m2
17:14 22.1 °C 13.4 °C 1004.6 hPa ENE 6.4 km/h 9.7 km/h 58% 0 mm 464 W/m2
17:20 22.3 °C 13.7 °C 1004.6 hPa ENE 4.8 km/h 11.3 km/h 58% 0 mm 441 W/m2
17:26 22.2 °C 12.9 °C 1004.6 hPa East 6.4 km/h 11.3 km/h 56% 0 mm 399 W/m2
17:32 22.3 °C 13.1 °C 1004.6 hPa ESE 4.8 km/h 4.8 km/h 56% 0 mm 345 W/m2
17:36 22.2 °C 13.5 °C 1004.6 hPa East 4.8 km/h 6.4 km/h 58% 0 mm 178 W/m2
17:42 22.2 °C 12.9 °C 1004.6 hPa East 4.8 km/h 8 km/h 56% 0 mm 297 W/m2
17:48 22.3 °C 13.3 °C 1004.6 hPa SE 4.8 km/h 9.7 km/h 57% 0 mm 151 W/m2
17:54 22.3 °C 13.3 °C 1004.6 hPa East 3.2 km/h 4.8 km/h 57% 0 mm 125 W/m2
18:00 22.3 °C 13.3 °C 1004.6 hPa East 3.2 km/h 4.8 km/h 57% 0 mm 70 W/m2
18:05 22.3 °C 13.3 °C 1004.3 hPa ENE 4.8 km/h 6.4 km/h 57% 0 mm 69 W/m2
18:12 22.3 °C 13.7 °C 1004.3 hPa East 4.8 km/h 4.8 km/h 58% 0 mm 65 W/m2
18:18 22.2 °C 13.8 °C 1004.3 hPa SSE 4.8 km/h 6.4 km/h 59% 0 mm 65 W/m2
18:24 22.1 °C 13.4 °C 1004.6 hPa ENE 6.4 km/h 8 km/h 58% 0 mm 49 W/m2
18:29 22 °C 13.9 °C 1004.6 hPa ESE 4.8 km/h 6.4 km/h 60% 0 mm 51 W/m2
18:36 22.1 °C 13.7 °C 1004.6 hPa ESE 3.2 km/h 6.4 km/h 59% 0 mm 58 W/m2
18:42 21.9 °C 13.6 °C 1004.6 hPa SE 3.2 km/h 4.8 km/h 59% 0 mm 65 W/m2
18:48 21.9 °C 13.5 °C 1004.6 hPa ENE 3.2 km/h 4.8 km/h 59% 0 mm 39 W/m2
18:54 21.8 °C 13.4 °C 1004.6 hPa ENE 4.8 km/h 6.4 km/h 59% 0 mm 32 W/m2
19:00 21.8 °C 13.4 °C 1004.6 hPa East 4.8 km/h 4.8 km/h 59% 0 mm 46 W/m2
19:06 21.8 °C 13.7 °C 1004.6 hPa NE 4.8 km/h 4.8 km/h 60% 0 mm 49 W/m2
19:12 21.7 °C 13.8 °C 1004.6 hPa ENE 3.2 km/h 3.2 km/h 61% 0 mm 26 W/m2
19:18 21.6 °C 13.4 °C 1005 hPa ENE 3.2 km/h 8 km/h 60% 0 mm 23 W/m2
19:24 21.5 °C 13.7 °C 1005 hPa NE 3.2 km/h 3.2 km/h 61% 0 mm 23 W/m2
19:30 21.3 °C 13.4 °C 1005 hPa ENE 1.6 km/h 4.8 km/h 61% 0 mm 18 W/m2
19:36 21.1 °C 13.3 °C 1005 hPa East 3.2 km/h 4.8 km/h 61% 0 mm 16 W/m2
19:42 20.9 °C 13.1 °C 1005 hPa ENE 1.6 km/h 1.6 km/h 61% 0 mm 12 W/m2
19:48 20.8 °C 13.5 °C 1005 hPa East 3.2 km/h 4.8 km/h 63% 0 mm 9 W/m2
19:54 20.7 °C 13.1 °C 1005 hPa East 3.2 km/h 6.4 km/h 62% 0 mm 5 W/m2
20:00 20.4 °C 13.2 °C 1005 hPa ENE 1.6 km/h 4.8 km/h 63% 0 mm 0 W/m2
20:06 20.2 °C 13.4 °C 1005 hPa ENE 1.6 km/h 4.8 km/h 65% 0 mm 0 W/m2
20:12 19.9 °C 13.4 °C 1005 hPa ENE 3.2 km/h 6.4 km/h 66% 0 mm 0 W/m2
20:18 19.8 °C 13.3 °C 1005 hPa ESE 4.8 km/h 6.4 km/h 66% 0 mm 0 W/m2
20:24 19.7 °C 13.1 °C 1005 hPa ENE 3.2 km/h 4.8 km/h 66% 0 mm 0 W/m2
20:30 19.4 °C 13.2 °C 1005 hPa East 3.2 km/h 3.2 km/h 67% 0 mm 0 W/m2
20:36 19.2 °C 12.9 °C 1005.3 hPa NE 3.2 km/h 8 km/h 67% 0 mm 0 W/m2
20:42 19.1 °C 13.1 °C 1005.3 hPa East 3.2 km/h 3.2 km/h 68% 0 mm 0 W/m2
20:48 18.9 °C 13.1 °C 1005.3 hPa NE 3.2 km/h 8 km/h 69% 0 mm 0 W/m2
20:54 18.7 °C 13.1 °C 1005.3 hPa ENE 3.2 km/h 3.2 km/h 70% 0 mm 0 W/m2
21:00 18.6 °C 13 °C 1005.3 hPa East 3.2 km/h 3.2 km/h 70% 0 mm 0 W/m2
21:06 18.4 °C 12.9 °C 1005.3 hPa East 3.2 km/h 4.8 km/h 70% 0 mm 0 W/m2
21:12 18.4 °C 12.8 °C 1005.6 hPa ENE 3.2 km/h 8 km/h 70% 0 mm 0 W/m2
21:18 18.2 °C 12.9 °C 1005.6 hPa NE 4.8 km/h 8 km/h 71% 0 mm 0 W/m2
21:24 18.1 °C 12.7 °C 1005.6 hPa East 4.8 km/h 4.8 km/h 71% 0 mm 0 W/m2
21:30 17.9 °C 12.8 °C 1005.6 hPa ENE 3.2 km/h 3.2 km/h 72% 0 mm 0 W/m2
21:36 17.8 °C 12.7 °C 1005.6 hPa ENE 3.2 km/h 3.2 km/h 72% 0 mm 0 W/m2
21:42 17.7 °C 12.8 °C 1005.6 hPa SE 1.6 km/h 1.6 km/h 73% 0 mm 0 W/m2
21:48 17.5 °C 12.6 °C 1005.6 hPa ESE 3.2 km/h 3.2 km/h 73% 0 mm 0 W/m2
21:54 17.4 °C 12.7 °C 1005.6 hPa ENE 1.6 km/h 4.8 km/h 74% 0 mm 0 W/m2
22:00 17.3 °C 12.6 °C 1005.6 hPa East 3.2 km/h 8 km/h 74% 0 mm 0 W/m2
22:06 17.2 °C 12.7 °C 1005.6 hPa ESE 3.2 km/h 8 km/h 75% 0 mm 0 W/m2
22:12 17.1 °C 12.7 °C 1005.6 hPa SE 3.2 km/h 3.2 km/h 75% 0 mm 0 W/m2
22:18 16.9 °C 12.7 °C 1005.6 hPa East 1.6 km/h 3.2 km/h 76% 0 mm 0 W/m2
22:24 16.9 °C 12.6 °C 1005.6 hPa East 1.6 km/h 3.2 km/h 76% 0 mm 0 W/m2
22:30 16.8 °C 12.7 °C 1005.6 hPa East 3.2 km/h 3.2 km/h 77% 0 mm 0 W/m2
22:36 16.7 °C 12.6 °C 1005.6 hPa East 3.2 km/h 8 km/h 77% 0 mm 0 W/m2
22:42 16.6 °C 12.6 °C 1005.6 hPa ENE 3.2 km/h 3.2 km/h 77% 0 mm 0 W/m2
22:48 16.5 °C 12.7 °C 1005.6 hPa East 1.6 km/h 4.8 km/h 78% 0 mm 0 W/m2
22:54 16.4 °C 12.7 °C 1005.6 hPa East 3.2 km/h 4.8 km/h 79% 0 mm 0 W/m2
23:00 16.3 °C 12.7 °C 1005.6 hPa ENE 3.2 km/h 6.4 km/h 79% 0 mm 0 W/m2
23:06 16.2 °C 12.6 °C 1005.6 hPa ENE 3.2 km/h 6.4 km/h 79% 0 mm 0 W/m2
23:12 16.1 °C 12.6 °C 1005.6 hPa ENE 3.2 km/h 3.2 km/h 80% 0 mm 0 W/m2
23:18 15.8 °C 12.6 °C 1005.6 hPa ENE 1.6 km/h 3.2 km/h 81% 0 mm 0 W/m2
23:24 15.6 °C 12.6 °C 1005.6 hPa ENE 1.6 km/h 4.8 km/h 82% 0 mm 0 W/m2
23:30 15.6 °C 12.6 °C 1005.6 hPa ENE 3.2 km/h 3.2 km/h 82% 0 mm 0 W/m2
23:36 15.5 °C 12.4 °C 1005.6 hPa ENE 3.2 km/h 3.2 km/h 82% 0 mm 0 W/m2
23:42 15.6 °C 12.6 °C 1005.6 hPa ENE 3.2 km/h 3.2 km/h 82% 0 mm 0 W/m2
23:48 15.6 °C 12.5 °C 1005.6 hPa ENE 3.2 km/h 4.8 km/h 82% 0 mm 0 W/m2
23:54 15.4 °C 12.4 °C 1005.6 hPa East 3.2 km/h 4.8 km/h 82% 0 mm 0 W/m2
Country Meadow, Clay, NY, USA
Compliments of Weather Underground - 2 mb